EW3101 Weather Reports


time (UTC)temp
C
wind
direction
speed
KPH
gust
KPH
rain 1hr
cm
rain 24hr
cm
rain mn
cm
humidity
%
barometer
mb
20260507180217 20 180 22.5 29.0 0.00 0.00 0.00 42 1013.8
20260507175237 19 135 25.7 40.2 0.00 0.00 0.00 42 1013.9
20260507174216 19 135 20.9 29.0 0.00 0.00 0.00 47 1014.0
20260507173217 18 135 25.7 38.6 0.00 0.00 0.00 46 1014.2
20260507172216 18 135 27.4 33.8 0.00 0.00 0.00 47 1014.5
20260507171217 18 135 30.6 41.8 0.00 0.00 0.00 46 1014.8
20260507170216 17 135 22.5 30.6 0.00 0.00 0.00 48 1014.8
20260507165217 17 135 25.7 35.4 0.00 0.00 0.00 49 1014.9
20260507164217 17 135 24.1 33.8 0.00 0.00 0.00 50 1014.8
20260507163236 17 135 20.9 27.4 0.00 0.00 0.00 51 1014.7
20260507162216 17 135 22.5 37.0 0.00 0.00 0.00 52 1014.9
20260507161257 16 158 16.1 30.6 0.00 0.00 0.00 53 1015.1
20260507160216 16 158 20.9 30.6 0.00 0.00 0.00 54 1015.1
20260507155216 16 158 16.1 24.1 0.00 0.00 0.00 55 1015.2
20260507154217 15 135 25.7 46.7 0.00 0.00 0.00 54 1015.0
20260507153216 15 135 20.9 30.6 0.00 0.00 0.00 57 1015.0
20260507152216 15 158 16.1 19.3 0.00 0.00 0.00 59 1015.2
20260507151216 14 135 22.5 33.8 0.00 0.00 0.00 61 1015.3
20260507150216 14 135 20.9 41.8 0.00 0.00 0.00 61 1015.7
20260507145216 13 158 17.7 30.6 0.00 0.00 0.00 62 1015.8
20260507144216 13 158 14.5 19.3 0.00 0.00 0.00 65 1015.9
20260507143236 13 135 14.5 20.9 0.00 0.00 0.00 67 1016.0
20260507142216 12 135 25.7 33.8 0.00 0.00 0.00 67 1015.9
20260507141236 12 158 19.3 29.0 0.00 0.00 0.00 69 1015.9
20260507140216 12 158 14.5 22.5 0.00 0.00 0.00 71 1016.1
20260507135216 11 225 12.9 17.7 0.00 0.00 0.00 72 1015.9
20260507134216 11 225 12.9 19.3 0.00 0.00 0.00 75 1016.3
20260507133236 10 203 16.1 20.9 0.00 0.00 0.00 76 1016.0
20260507132216 10 225 12.9 16.1 0.00 0.00 0.00 77 1016.0
20260507131216 10 203 12.9 16.1 0.00 0.00 0.00 78 1016.1
20260507130216 9 225 12.9 17.7 0.00 0.00 0.00 78 1016.2
20260507125216 9 203 9.7 12.9 0.00 0.00 0.00 80 1016.0
20260507124216 8 225 9.7 14.5 0.00 0.00 0.00 80 1015.9
20260507123216 8 203 11.3 16.1 0.00 0.00 0.00 81 1016.0
20260507122216 8 225 9.7 12.9 0.00 0.00 0.00 82 1016.0
20260507121216 7 225 11.3 14.5 0.00 0.00 0.00 83 1016.1
20260507120216 7 0 9.7 14.5 0.00 0.00 0.00 83 1016.2
20260507115236 7 0 8.0 14.5 0.00 0.00 0.00 83 1016.1
20260507114236 7 0 6.4 6.4 0.00 0.00 0.00 83 1016.1
20260507113236 7 0 6.4 9.7 0.00 0.00 0.00 83 1016.2
20260507112216 7 0 6.4 8.0 0.00 0.00 0.00 83 1016.2
20260507111216 7 0 11.3 16.1 0.00 0.00 0.00 83 1016.1
20260507110216 7 0 9.7 16.1 0.00 0.00 0.00 83 1016.1
20260507105216 7 0 8.0 9.7 0.00 0.00 0.00 83 1016.1
20260507104236 7 0 8.0 9.7 0.00 0.00 0.00 83 1016.0
20260507103215 7 0 6.4 8.0 0.00 0.00 0.00 82 1016.1
20260507102216 7 0 4.8 8.0 0.00 0.00 0.00 82 1016.1
20260507101216 7 0 4.8 6.4 0.00 0.00 0.00 81 1016.1
20260507100215 7 0 4.8 6.4 0.00 0.00 0.00 81 1016.1
20260507095216 7 0 6.4 8.0 0.00 0.00 0.00 81 1016.3
20260507094215 7 0 4.8 8.0 0.00 0.00 0.00 80 1016.5
20260507093215 7 0 6.4 9.7 0.00 0.00 0.00 80 1016.5
20260507092215 7 0 4.8 6.4 0.00 0.00 0.00 79 1016.5
20260507091215 7 0 4.8 6.4 0.00 0.00 0.00 79 1016.5
20260507090215 7 0 4.8 8.0 0.00 0.00 0.00 79 1016.6
20260507085215 7 0 6.4 8.0 0.00 0.00 0.00 78 1016.7
20260507084215 7 0 4.8 6.4 0.00 0.00 0.00 77 1016.8
20260507083255 7 0 4.8 4.8 0.00 0.00 0.00 77 1016.8
20260507082215 7 0 6.4 8.0 0.00 0.00 0.00 76 1016.9
20260507081215 7 0 3.2 4.8 0.00 0.00 0.00 76 1016.8
20260507080217 8 0 4.8 8.0 0.00 0.00 0.00 75 1016.8
20260507075217 8 0 4.8 6.4 0.00 0.00 0.00 75 1016.9
20260507074217 8 0 4.8 6.4 0.00 0.00 0.00 75 1016.9
20260507073237 8 0 3.2 6.4 0.00 0.00 0.00 74 1017.1
20260507072217 8 0 3.2 6.4 0.00 0.00 0.00 73 1017.2
20260507071217 8 0 3.2 6.4 0.00 0.00 0.00 73 1017.1
20260507070217 8 0 4.8 6.4 0.00 0.00 0.00 72 1017.4
20260507065217 8 0 4.8 8.0 0.00 0.00 0.00 72 1017.4
20260507064217 8 0 4.8 6.4 0.00 0.00 0.00 71 1017.5
20260507063217 8 0 4.8 6.4 0.00 0.00 0.00 71 1017.6
20260507062217 9 0 4.8 6.4 0.00 0.00 0.00 70 1017.5
20260507061217 9 0 4.8 8.0 0.00 0.00 0.00 69 1017.4
20260507060217 9 0 4.8 6.4 0.00 0.00 0.00 68 1017.4
20260507055217 10 0 4.8 6.4 0.00 0.00 0.00 67 1017.7
20260507054217 10 0 6.4 8.0 0.00 0.00 0.00 66 1017.7
20260507053217 10 248 6.4 8.0 0.00 0.00 0.00 65 1017.8
20260507052217 10 225 3.2 6.4 0.00 0.00 0.00 64 1017.8
20260507051217 10 225 4.8 12.9 0.00 0.00 0.00 63 1017.8
20260507050237 10 0 4.8 6.4 0.00 0.00 0.00 62 1017.6
20260507045236 10 0 6.4 9.7 0.00 0.00 0.00 61 1017.6
20260507044215 10 0 4.8 6.4 0.00 0.00 0.00 60 1017.5
20260507043215 10 0 4.8 8.0 0.00 0.00 0.00 61 1017.4
20260507042215 10 0 6.4 8.0 0.00 0.00 0.00 63 1017.7
20260507041215 9 0 4.8 4.8 0.00 0.00 0.00 64 1017.7
20260507040215 8 0 4.8 4.8 0.00 0.00 0.00 67 1017.7
20260507035235 8 0 3.2 4.8 0.00 0.00 0.00 69 1017.8
20260507034215 8 0 1.6 3.2 0.00 0.00 0.00 69 1017.5
20260507033215 8 0 3.2 3.2 0.00 0.00 0.00 71 1017.7
20260507032216 8 0 3.2 3.2 0.00 0.00 0.00 70 1017.6
20260507031237 8 0 1.6 3.2 0.00 0.00 0.00 70 1017.6
20260507030217 8 0 3.2 4.8 0.00 0.00 0.00 70 1017.6
20260507025217 8 0 1.6 3.2 0.00 0.00 0.00 67 1017.5
20260507024237 9 0 1.6 3.2 0.00 0.00 0.00 65 1017.5
20260507023217 10 0 3.2 4.8 0.00 0.00 0.00 63 1017.1
20260507022217 10 0 3.2 3.2 0.00 0.00 0.00 59 1017.1
20260507021217 11 0.0 0.0 0.00 0.00 0.00 55 1017.2
20260507020217 12 0.0 0.0 0.00 0.00 0.00 53 1017.0
20260507015217 12 0.0 0.0 0.00 0.00 0.00 48 1017.2
20260507014218 12 0.0 1.6 0.00 0.00 0.00 44 1017.0
20260507013217 13 293 1.6 3.2 0.00 0.00 0.00 43 1017.3
20260507012217 14 0.0 1.6 0.00 0.00 0.00 42 1017.3
20260507011217 15 338 1.6 1.6 0.00 0.00 0.00 37 1017.3
20260507010237 15 0.0 1.6 0.00 0.00 0.00 36 1017.2
20260507005217 16 23 1.6 4.8 0.00 0.00 0.00 35 1017.4
20260507004237 16 23 1.6 3.2 0.00 0.00 0.00 36 1017.5
20260507003217 16 23 1.6 3.2 0.00 0.00 0.00 32 1017.4
20260507002237 16 23 1.6 3.2 0.00 0.00 0.00 34 1017.4
20260507001217 15 23 1.6 3.2 0.00 0.00 0.00 32 1017.4
20260507000219 16 0 3.2 4.8 0.00 0.00 0.00 33 1017.6
20260506235217 16 0 6.4 9.7 0.00 0.00 0.00 32 1017.5
20260506234217 16 293 6.4 11.3 0.00 0.00 0.00 32 1017.5
20260506233217 16 270 9.7 16.1 0.00 0.00 0.00 32 1017.4
20260506232237 16 315 6.4 12.9 0.00 0.00 0.00 31 1017.6
20260506231217 16 338 11.3 16.1 0.00 0.00 0.00 34 1017.5
20260506230217 16 293 8.0 12.9 0.00 0.00 0.00 30 1017.7
20260506225217 16 0 8.0 16.1 0.00 0.00 0.00 31 1017.7
20260506224216 16 0 6.4 12.9 0.00 0.00 0.00 32 1017.6
20260506223216 16 293 8.0 12.9 0.00 0.00 0.00 32 1017.6
20260506222216 16 293 4.8 8.0 0.00 0.00 0.00 33 1017.6
20260506221217 15 0.0 1.6 0.00 0.00 0.00 33 1017.8
20260506220216 15 338 4.8 8.0 0.00 0.00 0.00 35 1017.9
20260506215216 15 23 4.8 6.4 0.00 0.00 0.00 39 1017.9
20260506214217 15 315 9.7 14.5 0.00 0.00 0.00 36 1017.9
20260506213216 15 23 8.0 12.9 0.00 0.00 0.00 36 1018.1
20260506212217 16 0 14.5 17.7 0.00 0.00 0.00 35 1018.3
20260506211217 17 23 6.4 12.9 0.00 0.00 0.00 32 1018.5
20260506210216 16 90 1.6 4.8 0.00 0.00 0.00 32 1018.5
20260506205216 16 315 8.0 16.1 0.00 0.00 0.00 34 1018.7
20260506204216 16 315 6.4 8.0 0.00 0.00 0.00 32 1018.9
20260506203236 16 338 6.4 9.7 0.00 0.00 0.00 29 1019.0
20260506202216 16 45 1.6 3.2 0.00 0.00 0.00 37 1019.1
20260506201216 15 270 3.2 4.8 0.00 0.00 0.00 35 1019.3
20260506200216 16 180 11.3 17.7 0.00 0.00 0.00 36 1019.6
20260506195216 15 203 8.0 11.3 0.00 0.00 0.00 40 1019.4
20260506194236 15 23 12.9 17.7 0.00 0.00 0.00 35 1019.5
20260506193216 15 23 3.2 6.4 0.00 0.00 0.00 39 1019.6
20260506192216 15 23 14.5 22.5 0.00 0.00 0.00 35 1019.9
20260506191216 15 225 6.4 16.1 0.00 0.00 0.00 34 1019.6
20260506190216 14 180 8.0 11.3 0.00 0.00 0.00 36 1019.8
20260506185236 13 23 6.4 9.7 0.00 0.00 0.00 33 1019.6
20260506184216 14 225 14.5 22.5 0.00 0.00 0.00 36 1019.6
20260506183216 14 203 4.8 8.0 0.00 0.00 0.00 36 1019.8
20260506182216 13 203 8.0 9.7 0.00 0.00 0.00 38 1019.7
20260506181216 14 0 4.8 6.4 0.00 0.00 0.00 34 1019.8